sat.trackr.live / text

‹ back to catalog

ONEWEB-0087

NORAD 45451 · 2020-020AD

PAYLOAD ACTIVE UNKNOWN

§ Identity

Operator
Country
UK
Launch date
2020-03-21
Launch site
TYMSC
Launch vehicle
Mass (kg)
RCS (m²)

Purposes: comms

External: N2YO · Heavens-Above · Gunter

§ Orbital elements

Epoch: 2026-09-12T20:22:21.847008Z

Period
109.81 min
Inclination
87.8969°
Eccentricity
0.0002052
Mean motion
13.11414668 rev/d
Perigee alt
1,216.1 km
Apogee alt
1,219.3 km
Semi-major
7,595.8 km
B*
9.2662e-5
RAAN
3.6235°
Arg perigee
97.8367°
Mean anomaly
262.2994°
Rev number
31,407

§ Raw data

ONEWEB-00871 45451U 20020AD  26255.84886397  .00000046  00000+0  92662-4 0  99942 45451  87.8969   3.6235 0002052  97.8367 262.2994 13.11414668314070

JSON: /api/v1/satellites/45451 · /tle

For live sub-satellite position, see the globe view (requires WebGL).

§ Visibility from observer

Set your observer location to see the next 7 days of passes ≥ 10°. The values pass through the URL so the page stays shareable.

No JS? Fill the form by hand. The geolocation button needs JavaScript.